Regional Weather Roundup
Issued by NWS

Home | Current Version | Previous Version | Text Only | Print | Product List | Glossary Off
Versions: 1 2 3 4 5 6 7 8 9 10 11 12 13 14 15 16 17 18 19 20 21 22 23 24 25 26 27 28 29 30 31 32 33 34 35 36 37 38 39 40 41 42 43 44 45 46 47 48 49 50

000
ASUS43 KMKX 270400
RWRWI

WISCONSIN REGIONAL WEATHER ROUNDUP
NATIONAL WEATHER SERVICE MILWAUKEE/SULLIVAN WI
1100 PM CDT SUN MAR 26 2017

NOTE: "FAIR" INDICATES FEW OR NO CLOUDS BELOW 12,000 FEET WITH NO
SIGNIFICANT WEATHER AND/OR OBSTRUCTIONS TO VISIBILITY.

WIZ001-002-006>008-014>016-023>028-270500-
NORTHWEST WISCONSIN

CITY           SKY/WX    TMP DP  RH WIND       PRES   REMARKS
SUPERIOR ARPT  CLOUDY    32  32 100 CALM      29.96S
ASHLAND        CLOUDY    33  32  96 CALM      29.94F
HAYWARD        CLOUDY    36  33  89 CALM      29.93S
SIREN          CLOUDY    35  34  96 CALM      29.94S
CUMBERLAND     CLOUDY    34  32  93 N3        29.92S FOG
RICE LAKE      CLOUDY    37  36  96 CALM      29.93S
CHETEK         CLOUDY    36  36  99 CALM      29.92S
LADYSMITH      CLOUDY    37  34  91 N5        29.92R WCI  33
EAU CLAIRE     NOT AVBL
MENOMONIE      CLOUDY    40  38  93 N8        29.92R
NEW RICHMOND   CLOUDY    37  37  99 N3        29.94R
OSCEOLA        CLOUDY    37  37 100 N3        29.96S
$$

WIZ003>005-009-010-017-018-270500-
NORTH CENTRAL WISCONSIN

CITY           SKY/WX    TMP DP  RH WIND       PRES   REMARKS
MANITOWISH WTR CLOUDY    32  32 100 NW3       29.88F
ARBOR VITAE    CLOUDY    37  36  96 N5        29.87S FOG     WCI  33
WOODRUFF       CLOUDY    37  36  96 N5        29.87S FOG     WCI  33
RHINELANDER    CLOUDY    37  37 100 CALM      29.86F
EAGLE RIVER    CLOUDY    34  34 100 N7        29.86F WCI  28
LAND O LAKES   CLOUDY    33  33 100 N6        29.89S WCI  28
PHILLIPS       CLOUDY    33  33 100 N3        29.89S FOG
TOMAHAWK       CLOUDY    36  35  96 N3        29.88S
MEDFORD        CLOUDY    37  37  99 N3        29.86F
MERRILL        CLOUDY    37  37 100 CALM      29.87F
$$

WIZ029-030-035-036-043>047-270500-
CENTRAL WISCONSIN

CITY           SKY/WX    TMP DP  RH WIND       PRES   REMARKS
WAUSAU         CLOUDY    38  38 100 CALM      29.86S
MOSINEE        FOG       36  36 100 CALM      29.88S VSB 3/4
MARSHFIELD     FOG       38  37  97 W3        29.88R VSB 3/4
STEVENS POINT  DRIZZLE   36  36 100 CALM      29.88S
WAUPACA        RAIN      40  38  96 CALM      29.89S
WAUTOMA        CLOUDY    39  38  96 SW5       29.91R
WISC RAPIDS    CLOUDY    39  39 100 W3        29.90R FOG
CAMP DOUGLAS   CLOUDY    39  39 100 W5        29.90S
$$

WIZ011>013-019>022-031-037>040-048>050-270500-
NORTHEAST WISCONSIN

CITY           SKY/WX    TMP DP  RH WIND       PRES   REMARKS
ANTIGO         DRIZZLE   35  35 100 NW3       29.86S
SHAWANO        DRIZZLE   38  37  94 CALM      29.89S
OCONTO         CLOUDY    35  35  99 CALM      29.88F
STURGEON BAY   MIX PCPN  34  33  96 N12       29.88S FOG     WCI  25
GREEN BAY      LGT RAIN  37  37 100 CALM      29.88S FOG
MANITOWOC      NOT AVBL
APPLETON       DRIZZLE   37  37 100 N5        29.86F WCI  34
CLINTONVILLE   DRIZZLE   37  36  93 CALM      29.88F
OSHKOSH        CLOUDY    39  37  92 NW5       29.88R
$$

WIZ032>034-041-042-053>061-270500-
SOUTHWEST WISCONSIN

CITY           SKY/WX    TMP DP  RH WIND       PRES   REMARKS
LA CROSSE      CLOUDY    42  40  92 CALM      29.93R
SPARTA         CLOUDY    39  39 100 CALM      29.92R FOG
VIROQUA        CLOUDY    39  39 100 CALM      29.91R VSB 1/4
BOSCOBEL       CLOUDY    43  42  97 CALM      29.93S FOG
PRAIRIE DU CHI CLOUDY    42  40  91 CALM      29.92S
PLATTEVILLE    CLOUDY    44  44 100 NW5       29.91F
$$

WIZ056-057-062-063-064-067-068-270500-
SOUTH CENTRAL WISCONSIN

CITY           SKY/WX    TMP DP  RH WIND       PRES   REMARKS
REEDSBURG      CLOUDY    38  38 100 CALM      29.90S FOG
BARABOO/DELLS  CLOUDY    39  38  97 NW3       29.90S FOG
LONE ROCK      NOT AVBL
MINERAL POINT  FOG       43  43 100 NW5       29.91S VSB 3/4
MADISON        CLOUDY    40  39  97 W3        29.90S
MIDDLETON      CLOUDY    42  42 100 W3        29.91R
WATERTOWN      CLOUDY    41  41 100 NW7       29.89R FOG
MONROE         DRZL/FOG  43  43 100 NW8       29.90S VSB 1/2
JANESVILLE     CLOUDY    45  45 100 NW9       29.89S FOG
$$

WIZ051-052-058>065-066-070>072-270500-
SOUTHEAST WISCONSIN

CITY           SKY/WX    TMP DP  RH WIND       PRES   REMARKS
MILWAUKEE      CLOUDY    42  40  92 CALM      29.88R FOG
WAUKESHA       LGT RAIN  41  41 100 W8        29.89R
MILWAUKEE/TIMM CLOUDY    41  39  93 CALM      29.88R FOG
RACINE         CLOUDY    42  41  96 CALM      29.89R
KENOSHA        FOG       47  45  93 CALM      29.88R VSB 1
FOND DU LAC    LGT RAIN  39  37  92 CALM      29.89R FOG
SHEBOYGAN      CLOUDY    40  38  93 NW6       29.87R
WEST BEND      LGT RAIN  41  41 100 W6        29.87R
JUNEAU         DRIZZLE   39  38  97 CALM      29.90R
$$

LSZ147-162-270500-
LAKE SUPERIOR

STATION/POSITION TIME  TEMP    WIND        PRES    WAVE
                       AIR SEA DIR/SP/G            HT/PER
                 (UTC) (F)     (DEG/KT/KT) (MB)    (FT/S)
DEVILS ISLAND    0300   33      30/  2/  2 1015.2F
PORT WING        0340   34     330/  3/  4 1014.6S
SAXON HARBOR     0340   33     310/  3/  3 1013.9S
$$

LMZ867-665-643>646-270500-
LAKE MICHIGAN

STATION/POSITION TIME  TEMP    WIND        PRES    WAVE
                       AIR SEA DIR/SP/G            HT/PER
                 (UTC) (F)     (DEG/KT/KT) (MB)    (FT/S)
CHAMBERS ISLAND  0340   33     350/  5/  6 1011.5S
NORTHPORT PIER   0340   33     340/  7/  8 1011.5F
KEWAUNEE LAKESHO 0330   35     340/  3/  8 1011.2S
SHEBOYGAN LAKESH 0300   41     330/  5/  5 1011.6S
PORT WASHINGTON  0340   40     210/  3/  4 1012.5S
MILWAUKEE LAKESH 0330   39      40/  4/  4   N/A
KENOSHA   LAKESH 0300   41     190/  3/  4 1011.5
$$

TC  - TEMPERATURE IN CELSIUS
VSB - VISIBILITY IN STATUTE MILES
WCI - WIND CHILL INDEX
HX  - HEAT INDEX




USA.gov is the U.S. government's official web portal to all federal, state and local government web resources and services.